Weather History for Starkville, MS

Change the Weather History Date:

Wednesday, February 6, 2013

  Actual Average Record
Temperature  
Mean Temperature 50 °F -  
Max Temperature 66 °F 52 °F 66 °F (2013)
Min Temperature 33 °F 32 °F 26 °F (2014)
Degree Days  
Heating Degree Days 16    
Moisture  
Dew Point 42 °F    
Average Humidity 80    
Maximum Humidity 100    
Minimum Humidity 43    
Precipitation  
Precipitation 0.01 in - - ()
Sea Level Pressure  
Sea Level Pressure 30.11 in    
Wind  
Wind Speed 1 mph (ESE)    
Max Wind Speed 9 mph    
Max Gust Speed -    
Visibility 6 miles    
Events Fog , Rain    
Averages and records for this station are not official NWS values.
T = Trace of Precipitation, MM = Missing Value Source: NWS Daily Summary

Daily Weather History Graph

Daily Weather History Graph

Search for Another Location

Airport:

Trip Planner

Search our weather history database for the weather conditions in past years. The results will help you decide how hot, cold, wet, or windy it might be!

Date:

Astronomy

Feb. 06, 2013 Rise Set
Actual Time 6:47 AM CST 5:32 PM CST
Civil Twilight 6:21 AM CST 5:57 PM CST
Nautical Twilight 5:52 AM CST 6:27 PM CST
Astronomical Twilight 5:23 AM CST 6:56 PM CST
Moon 3:25 AM CST (2/6) 1:55 PM CST (2/6)
Length of Visible Light 11h 36m
Length of Day
10h 44m
Waning Crescent, 17% of the Moon is Illuminated
Feb 6
Waning Crescent
Feb 10
New
Feb 17
First Quarter
Feb 25
Full
Mar 4
Last Quarter

Hourly Weather History & Observations

Time (CST) Temp. Windchill Dew Point Humidity Pressure Visibility Wind Dir Wind Speed Gust Speed Precip Events Conditions
12:15 AM 39.2 °F - 39.2 °F 100% 30.07 in 0.5 mi Calm Calm - N/A Fog Fog
12:35 AM 37.4 °F - 37.4 °F 100% 30.08 in 0.5 mi Calm Calm - N/A Fog Fog
12:55 AM 37.4 °F - 37.4 °F 100% 30.07 in 0.5 mi Calm Calm - N/A Fog Fog
1:15 AM 37.4 °F - 37.4 °F 100% 30.08 in 0.2 mi Calm Calm - N/A Fog Fog
1:55 AM 35.6 °F - 35.6 °F 100% 30.08 in 0.5 mi Calm Calm - N/A Fog Fog
2:15 AM 37.4 °F - 37.4 °F 100% 30.08 in 0.2 mi Calm Calm - N/A Fog Fog
2:35 AM 37.4 °F - 35.6 °F 93% 30.08 in 0.5 mi Calm Calm - N/A Fog Fog
2:55 AM 37.4 °F - 35.6 °F 93% 30.08 in 0.5 mi Calm Calm - N/A Fog Fog
3:15 AM 35.6 °F - 35.6 °F 100% 30.09 in 0.2 mi Calm Calm - N/A Fog Fog
3:35 AM 35.6 °F - 35.6 °F 100% 30.09 in 0.2 mi Calm Calm - N/A Fog Fog
3:55 AM 35.6 °F - 35.6 °F 100% 30.09 in 0.5 mi Calm Calm - 0.01 in Fog Fog
4:15 AM 35.6 °F - 35.6 °F 100% 30.09 in 0.5 mi Calm Calm - N/A Fog Fog
4:35 AM 37.4 °F 34.9 °F 37.4 °F 100% 30.09 in 0.5 mi North 3.5 mph - N/A Fog Fog
4:55 AM 35.6 °F - 35.6 °F 100% 30.11 in 0.5 mi Calm Calm - N/A Fog Fog
5:15 AM 35.6 °F - 35.6 °F 100% 30.11 in 0.5 mi Calm Calm - N/A Fog Fog
5:35 AM 35.6 °F - 35.6 °F 100% 30.12 in 1.8 mi Calm Calm - N/A   Mist
5:55 AM 33.8 °F - 33.8 °F 100% 30.13 in 0.8 mi Calm Calm - N/A   Mist
6:15 AM 33.8 °F - 33.8 °F 100% 30.13 in 0.8 mi Calm Calm - N/A   Mist
6:35 AM 33.8 °F - 33.8 °F 100% 30.14 in 0.5 mi Calm Calm - N/A Fog Fog
6:55 AM 33.8 °F - 33.8 °F 100% 30.14 in 0.5 mi Calm Calm - N/A Fog Fog
7:15 AM 33.8 °F - 33.8 °F 100% 30.15 in 0.2 mi Calm Calm - N/A Fog Fog
7:35 AM 35.6 °F - 35.6 °F 100% 30.16 in 0.2 mi Calm Calm - N/A Fog Fog
7:55 AM 37.4 °F - 37.4 °F 100% 30.17 in 0.2 mi Calm Calm - N/A Fog Fog
8:15 AM 37.4 °F - 37.4 °F 100% 30.17 in 0.2 mi Calm Calm - N/A Fog Fog
8:35 AM 39.2 °F - 37.4 °F 93% 30.18 in 0.2 mi Calm Calm - N/A Fog Fog
8:55 AM 41.0 °F - 41.0 °F 100% 30.19 in 0.2 mi Calm Calm - N/A Fog Fog
9:15 AM 42.8 °F - 42.8 °F 100% 30.20 in 0.2 mi Calm Calm - N/A Fog Fog
9:35 AM 42.8 °F - 42.8 °F 100% 30.20 in 5.0 mi Calm Calm - N/A   Mostly Cloudy
9:55 AM 46.4 °F 44.3 °F 46.4 °F 100% 30.19 in 10.0 mi ENE 4.6 mph - N/A   Scattered Clouds
10:15 AM 48.2 °F - 46.4 °F 93% 30.20 in 10.0 mi East 3.5 mph - N/A   Clear
10:35 AM 51.8 °F - 44.6 °F 76% 30.19 in 10.0 mi ESE 6.9 mph - N/A   Clear
10:55 AM 53.6 °F - 44.6 °F 72% 30.18 in 10.0 mi East 9.2 mph - N/A   Clear
11:15 AM 55.4 °F - 46.4 °F 72% 30.18 in 10.0 mi East 9.2 mph - N/A   Clear
11:35 AM 57.2 °F - 46.4 °F 67% 30.18 in 10.0 mi ESE 6.9 mph - N/A   Clear
11:55 AM 59.0 °F - 46.4 °F 63% 30.17 in 10.0 mi ESE 6.9 mph - N/A   Clear
12:15 PM 60.8 °F - 46.4 °F 59% 30.16 in 10.0 mi East 4.6 mph - N/A   Clear
12:35 PM 62.6 °F - 46.4 °F 55% 30.15 in 10.0 mi SSE 4.6 mph - N/A   Clear
12:55 PM 62.6 °F - 46.4 °F 55% 30.14 in 10.0 mi SE 3.5 mph - N/A   Clear
1:15 PM 64.4 °F - 44.6 °F 49% 30.13 in 10.0 mi ESE 5.8 mph - N/A   Clear
1:35 PM 64.4 °F - 44.6 °F 49% 30.12 in 10.0 mi South 5.8 mph - N/A   Clear
1:55 PM 64.4 °F - 44.6 °F 49% 30.12 in 10.0 mi SE 6.9 mph - N/A   Clear
2:15 PM 64.4 °F - 44.6 °F 49% 30.11 in 10.0 mi ESE 3.5 mph - N/A   Clear
2:35 PM 64.4 °F - 44.6 °F 49% 30.10 in 10.0 mi East 6.9 mph - N/A   Clear
2:55 PM 66.2 °F - 42.8 °F 43% 30.09 in 10.0 mi ESE 8.1 mph - N/A   Clear
3:15 PM 64.4 °F - 44.6 °F 49% 30.09 in 10.0 mi SSE 3.5 mph - N/A   Clear
3:35 PM 62.6 °F - 42.8 °F 48% 30.08 in 10.0 mi ESE 4.6 mph - N/A   Clear
3:55 PM 62.6 °F - 44.6 °F 52% 30.08 in 10.0 mi East 4.6 mph - N/A   Clear
4:15 PM 64.4 °F - 44.6 °F 49% 30.07 in 10.0 mi ESE 6.9 mph - N/A   Clear
4:35 PM 62.6 °F - 44.6 °F 52% 30.07 in 10.0 mi ESE 5.8 mph - N/A   Clear
4:55 PM 60.8 °F - 44.6 °F 55% 30.06 in 10.0 mi ESE 3.5 mph - N/A   Clear
5:15 PM 59.0 °F - 44.6 °F 59% 30.06 in 10.0 mi Calm Calm - N/A   Clear
5:35 PM 55.4 °F - 46.4 °F 72% 30.07 in 10.0 mi Calm Calm - N/A   Clear
5:55 PM 55.4 °F - 46.4 °F 72% 30.08 in 10.0 mi Calm Calm - N/A   Clear
6:15 PM 53.6 °F - 46.4 °F 77% 30.09 in 10.0 mi Calm Calm - N/A   Clear
6:35 PM 53.6 °F - 46.4 °F 77% 30.09 in 10.0 mi Calm Calm - N/A   Clear
6:55 PM 53.6 °F - 48.2 °F 82% 30.09 in 10.0 mi Calm Calm - N/A   Clear
7:15 PM 51.8 °F - 46.4 °F 82% 30.09 in 10.0 mi Calm Calm - N/A   Clear
7:35 PM 51.8 °F - 46.4 °F 82% 30.08 in 10.0 mi Calm Calm - N/A   Clear
7:55 PM 51.8 °F - 46.4 °F 82% 30.07 in 10.0 mi Calm Calm - N/A   Clear
8:15 PM 51.8 °F - 48.2 °F 88% 30.07 in 10.0 mi Calm Calm - N/A   Clear
8:35 PM 53.6 °F - 46.4 °F 77% 30.07 in 10.0 mi Calm Calm - N/A   Clear
8:55 PM 51.8 °F - 46.4 °F 82% 30.06 in 10.0 mi Calm Calm - N/A   Clear
9:15 PM 51.8 °F - 46.4 °F 82% 30.06 in 10.0 mi Calm Calm - N/A   Mostly Cloudy
9:35 PM 51.8 °F - 48.2 °F 88% 30.05 in 10.0 mi Calm Calm - N/A   Overcast
9:55 PM 53.6 °F - 48.2 °F 82% 30.04 in 10.0 mi ENE 3.5 mph - N/A   Scattered Clouds
10:15 PM 55.4 °F - 44.6 °F 67% 30.03 in 10.0 mi East 5.8 mph - N/A   Scattered Clouds
10:35 PM 57.2 °F - 44.6 °F 63% 30.04 in 10.0 mi Calm Calm - N/A   Mostly Cloudy
10:55 PM 55.4 °F - 44.6 °F 67% 30.05 in 10.0 mi ESE 3.5 mph - N/A   Overcast
11:15 PM 55.4 °F - 44.6 °F 67% 30.07 in 10.0 mi Calm Calm - N/A   Overcast
11:35 PM 51.8 °F - 46.4 °F 82% 30.07 in 10.0 mi SE 5.8 mph - N/A Rain Light Rain
11:55 PM 53.6 °F - 46.4 °F 77% 30.07 in 10.0 mi Calm Calm - N/A   Overcast